This is the latest recevied weather packets stored in our database for station/object KD8ZLZ. If no packets are shown the sender has not sent any weather packets the latest 10 day(s).
| Time | Temp. | Humidity | Pressure | Rain* | Wind** | Luminosity | Snow |
|---|---|---|---|---|---|---|---|
| 1777127147 | 13.33° C | 83% | 1012.8 hPa | 0 mm | - | - | - |
| 1777125627 | 13.89° C | 84% | 1012.5 hPa | 0 mm | - | - | - |
| 1777122927 | 14.44° C | 85% | 1012.2 hPa | 0.25 mm | - | - | - |
| 1777121428 | 14.44° C | 84% | 1011.9 hPa | 0.25 mm | - | - | - |
| 1777118127 | 15° C | 84% | 1010.9 hPa | 0 mm | - | - | - |
| 1777116927 | 15° C | 86% | 1010.9 hPa | 0 mm | - | - | - |
| 1777116027 | 15° C | 85% | 1010.6 hPa | 0 mm | - | - | - |
| 1777114527 | 15° C | 88% | 1010.3 hPa | 0 mm | - | - | - |
| 1777112727 | 15° C | 91% | 1010 hPa | 0 mm | - | - | - |
| 1777109427 | 14.44° C | 93% | 1009.6 hPa | 0 mm | - | - | - |
| 1777108827 | 14.44° C | 94% | 1009.6 hPa | 0 mm | - | - | - |
| 1777105228 | 12.78° C | 97% | 1009.1 hPa | 0 mm | - | - | - |
| 1777103727 | 12.22° C | 97% | 1009.1 hPa | 0 mm | - | - | - |
| 1777102227 | 12.22° C | 97% | 1009.3 hPa | 0 mm | - | - | - |
| 1777098927 | 12.78° C | 96% | 1009.6 hPa | 0 mm | - | - | - |
| 1777096227 | 12.78° C | 95% | 1009.6 hPa | 0 mm | - | - | - |
| 1777095627 | 12.78° C | 95% | 1009.6 hPa | 0 mm | - | - | - |
| 1777095047 | 12.78° C | 95% | 1009.5 hPa | 0 mm | - | - | - |
| 1777093527 | 12.78° C | 94% | 1009.5 hPa | 0 mm | - | - | - |
| 1777091728 | 13.33° C | 95% | 1009.4 hPa | 0.25 mm | - | - | - |
| 1777091127 | 13.33° C | 95% | 1009.4 hPa | 0.51 mm | - | - | - |
| 1777089348 | 13.33° C | 94% | 1009.3 hPa | 0.51 mm | - | - | - |
| 1777089027 | 13.33° C | 94% | 1009.3 hPa | 0.76 mm | - | - | - |
* Rain latest hour (hover to see other rain measurements)
** Current wind speed in m/s (hover to see current wind gust speed)